Location: Alpha Ridge Park
(39.3209°N, 76.9128°W)
Time: 19:30:32
(UTC-04:00)

S-56A Canister/Altair - Pass Details

Date: 26 May 2019
Orbit: 633 x 2499 km, 38.9° (Epoch: 17 June)

Event Time Altitude Azimuth Distance (km) Brightness Sun altitude
Rises 08:44:10 0° 280° (W) 4,817 11.1 32.1°
Reaches altitude 10° 08:47:47 10° 268° (W) 4,108 10.8 32.8°
Maximum altitude 08:56:23 25° 219° (SW) 3,554 10.8 34.5°
Drops below altitude 10° 09:06:53 10° 171° (S) 5,058 11.9 36.5°
Sets 09:12:05 0° 160° (SSE) 6,153 12.4 37.5°
